Le nostre stazioni meteo in Italia

Pubblicità
Il mio iltempo24.it
Brindisi, Italia (16320): Temperatura & dewpoint: 04.04.2020 04:00:00 - 10.04.2020 04:00:00 (CEST)Brindisi, Italia (16320): velocità del vento: 04.04.2020 04:00:00 - 10.04.2020 04:00:00 (CEST)Brindisi, Italia (16320): direzione del vento: 04.04.2020 04:00:00 - 10.04.2020 04:00:00 (CEST)Brindisi, Italia (16320): reduced air pressure: 04.04.2020 04:00:00 - 10.04.2020 04:00:00 (CEST)Brindisi, Italia (16320): visibility: 04.04.2020 04:00:00 - 10.04.2020 04:00:00 (CEST)Brindisi, Italia (16320): precipitazioni: 04.04.2020 04:00:00 - 10.04.2020 04:00:00 (CEST)
Data & Tempo tt [°C] td [°C] ff [km/h] ff [kn] dd ppp [hPa] vv [km] rr [mm]
10.04.2020 04:00:00 11,0 6,0 11 6 NO - 10 -
10.04.2020 03:00:00 10,0 3,0 9 5 O - 10 -
10.04.2020 02:00:00 9,4 3,8 11 6 ONO 1020,4 10 -
10.04.2020 01:00:00 10,0 2,0 11 6 O - 10 -
10.04.2020 00:00:00 11,0 1,0 13 7 O - 10 -
09.04.2020 23:00:00 10,6 3,1 11 6 ONO 1020,9 10 0,0
09.04.2020 22:00:00 12,0 7,0 15 8 NO - 10 -
09.04.2020 21:00:00 13,0 7,0 16 9 ONO - 10 -
09.04.2020 20:00:00 12,9 8,2 21 11 ONO 1020,0 10 -
09.04.2020 19:00:00 14,0 10,0 21 11 ONO - 10 -
09.04.2020 18:00:00 15,0 11,0 22 12 NO - 10 -
09.04.2020 17:00:00 15,1 10,9 22 12 NO 1020,0 10 0,0
09.04.2020 16:00:00 16,0 11,0 22 12 NO - 10 -
09.04.2020 15:00:00 - - - - - - - -
09.04.2020 14:00:00 15,8 12,1 24 13 NO 1021,2 - -
09.04.2020 13:00:00 - - - - - - - -
09.04.2020 12:00:00 - - - - - - - -
09.04.2020 11:00:00 14,3 10,8 29 16 NO 1022,2 - 0,0
09.04.2020 10:00:00 - - - - - - - -
09.04.2020 09:00:00 - - - - - - - -
09.04.2020 08:00:00 12,2 10,3 26 14 NO 1021,5 - -
09.04.2020 07:00:00 11,0 10,0 24 13 NO - 10 -
09.04.2020 06:00:00 11,0 10,0 24 13 NO - 10 -
09.04.2020 05:00:00 11,2 9,6 22 12 ONO 1021,0 10 0,0
09.04.2020 04:00:00 12,0 9,0 22 12 NO - 10 -
09.04.2020 03:00:00 11,0 8,0 16 9 NO - 10 -
09.04.2020 02:00:00 10,4 7,5 15 8 NO 1022,1 10 -
09.04.2020 01:00:00 11,0 9,0 11 6 NO - 10 -
09.04.2020 00:00:00 11,0 10,0 9 5 NO - 10 -
08.04.2020 23:00:00 10,9 9,8 11 6 NO 1022,7 10 0,0
08.04.2020 22:00:00 12,0 11,0 11 6 NO - 10 -
08.04.2020 21:00:00 13,0 10,0 11 6 NO - 10 -
08.04.2020 20:00:00 12,6 9,8 13 7 NO 1022,2 10 -
08.04.2020 19:00:00 14,0 9,0 16 9 NO - 10 -
08.04.2020 18:00:00 15,0 8,0 18 10 NO - 10 -
08.04.2020 17:00:00 16,5 2,4 18 10 NNO 1022,4 10 0,0
08.04.2020 16:00:00 16,0 4,0 16 9 N - 10 -
08.04.2020 15:00:00 16,0 9,0 18 10 NNE - 10 -
08.04.2020 14:00:00 15,8 9,1 16 9 N 1023,8 - -
08.04.2020 13:00:00 - - - - - - - -
08.04.2020 12:00:00 - - - - - - - -
08.04.2020 11:00:00 15,8 8,4 15 8 NNE 1025,0 - 0,0
08.04.2020 10:00:00 - - - - - - - -
08.04.2020 09:00:00 - - - - - - - -
08.04.2020 08:00:00 13,2 11,1 15 8 ONO 1024,9 - -
08.04.2020 07:00:00 12,0 10,0 15 8 NO - 10 -
08.04.2020 06:00:00 12,0 10,0 15 8 NO - 10 -
08.04.2020 05:00:00 11,7 10,6 16 9 ONO 1024,7 10 0,0
08.04.2020 04:00:00 12,0 11,0 21 11 NO - 10 -
08.04.2020 03:00:00 12,0 11,0 21 11 NO - 10 -
08.04.2020 02:00:00 12,0 11,1 22 12 NO 1025,3 10 -
08.04.2020 01:00:00 13,0 12,0 21 11 NO - 10 -
08.04.2020 00:00:00 13,0 12,0 21 11 NO - 10 -
07.04.2020 23:00:00 11,9 10,8 13 7 NO 1025,9 10 0,0
07.04.2020 22:00:00 13,0 12,0 16 9 NO - 10 -
07.04.2020 21:00:00 13,0 12,0 16 9 NO - 10 -
07.04.2020 20:00:00 13,3 12,1 21 11 ONO 1025,6 10 -
07.04.2020 19:00:00 14,0 13,0 18 10 NO - 10 -
07.04.2020 18:00:00 15,0 12,0 21 11 NO - 10 -
07.04.2020 17:00:00 15,7 11,4 22 12 NO 1025,3 10 0,0
07.04.2020 16:00:00 16,0 9,0 22 12 N - 10 -
07.04.2020 15:00:00 17,0 10,0 13 7 N - 10 -
07.04.2020 14:00:00 16,1 10,1 16 9 NNE 1025,6 10 -
07.04.2020 13:00:00 16,0 10,0 21 11 NE - 10 -
07.04.2020 12:00:00 16,0 10,0 22 12 NE - 10 -
07.04.2020 11:00:00 15,8 9,3 24 13 ENE 1025,4 10 0,0
07.04.2020 10:00:00 15,0 8,0 22 12 NE - 10 -
07.04.2020 09:00:00 15,0 9,0 28 15 NE - 10 -
07.04.2020 08:00:00 13,6 8,6 22 12 NE 1024,6 10 -
07.04.2020 07:00:00 - - - - - - - -
07.04.2020 06:00:00 - - - - - - - -
07.04.2020 05:00:00 11,2 9,9 13 7 ONO 1024,4 - 0,0
07.04.2020 04:00:00 - - - - - - - -
07.04.2020 03:00:00 - - - - - - - -
07.04.2020 02:00:00 12,4 10,9 13 7 NO 1024,8 - -
07.04.2020 01:00:00 - - - - - - - -
07.04.2020 00:00:00 - - - - - - - -
06.04.2020 23:00:00 12,2 9,3 13 7 NO 1024,8 10 0,0
06.04.2020 22:00:00 13,0 11,0 13 7 NO - 10 -
06.04.2020 21:00:00 13,0 11,0 15 8 NO - 10 -
06.04.2020 20:00:00 13,8 9,4 11 6 NNO 1023,4 10 -
06.04.2020 19:00:00 15,0 10,0 13 7 NNE - 10 -
06.04.2020 18:00:00 15,0 10,0 15 8 NNE - 10 -
06.04.2020 17:00:00 15,6 10,1 16 9 NNE 1023,2 10 0,0
06.04.2020 16:00:00 16,0 11,0 16 9 N - 10 -
06.04.2020 15:00:00 - - - - - - - -
06.04.2020 14:00:00 16,6 11,3 15 8 NNE 1023,6 - -
06.04.2020 13:00:00 - - - - - - - -
06.04.2020 12:00:00 - - - - - - - -
06.04.2020 11:00:00 15,9 10,0 13 7 ENE 1023,1 - 0,0
06.04.2020 10:00:00 - - - - - - - -
06.04.2020 09:00:00 - - - - - - - -
06.04.2020 08:00:00 14,3 9,8 11 6 ENE 1021,1 - -
06.04.2020 07:00:00 14,0 9,0 15 8 E - 10 -
06.04.2020 06:00:00 14,0 9,0 13 7 ENE - 10 -
06.04.2020 05:00:00 13,7 9,2 16 9 ENE 1018,7 10 0,0
06.04.2020 04:00:00 14,0 10,0 18 10 ENE - 10 -
06.04.2020 03:00:00 - - - - - - - -
06.04.2020 02:00:00 13,7 8,9 21 11 ENE 1018,2 10 -
06.04.2020 01:00:00 14,0 8,0 29 16 ENE - 10 -
06.04.2020 00:00:00 14,0 10,0 22 12 NE - 10 -
05.04.2020 23:00:00 14,0 8,8 28 15 NE 1017,8 10 0,0
05.04.2020 22:00:00 - - - - - - - -
05.04.2020 21:00:00 - - - - - - - -
05.04.2020 20:00:00 14,5 9,0 31 17 NE 1016,3 - -
05.04.2020 19:00:00 - - - - - - - -
05.04.2020 18:00:00 - - - - - - - -
05.04.2020 17:00:00 15,3 9,8 29 16 NNE 1014,8 - 0,0
05.04.2020 16:00:00 - - - - - - - -
05.04.2020 15:00:00 15,0 10,0 28 15 NNE - 10 -
05.04.2020 14:00:00 15,8 9,9 31 17 NNE 1014,2 10 -
05.04.2020 13:00:00 15,0 9,0 31 17 NE - 10 -
05.04.2020 12:00:00 16,0 10,0 34 18 NE - 10 -
05.04.2020 11:00:00 15,2 9,3 26 14 NNE 1013,8 10 0,0
05.04.2020 10:00:00 15,0 9,0 29 16 NNE - 10 -
05.04.2020 09:00:00 15,0 8,0 37 20 NNE - 10 -
05.04.2020 08:00:00 14,3 8,7 35 19 NNE 1012,4 10 -
05.04.2020 07:00:00 14,0 8,0 37 20 NNE - 10 -
05.04.2020 06:00:00 - - - - - - - -
05.04.2020 05:00:00 14,0 7,7 34 18 N 1011,6 10 0,0
05.04.2020 04:00:00 14,0 8,0 37 20 NNE - 10 -
05.04.2020 03:00:00 15,0 7,0 41 22 NNE - 10 -
05.04.2020 02:00:00 14,4 8,2 35 19 NNE 1012,0 10 -
05.04.2020 01:00:00 14,0 8,0 35 19 NNE - 10 -
05.04.2020 00:00:00 14,0 8,0 35 19 NNE - 10 -
04.04.2020 23:00:00 14,2 7,9 41 22 NNE 1012,5 10 0,0
04.04.2020 22:00:00 14,0 8,0 26 14 N - 10 -
04.04.2020 21:00:00 14,0 9,0 22 12 N - 10 -
04.04.2020 20:00:00 14,2 10,9 24 13 NNO 1011,6 10 -
04.04.2020 19:00:00 15,0 9,0 22 12 NNO - 10 -
04.04.2020 18:00:00 15,0 10,0 21 11 N - 10 -
04.04.2020 17:00:00 15,5 8,8 28 15 N 1011,0 10 0,0
04.04.2020 16:00:00 16,0 9,0 24 13 N - 10 -
04.04.2020 15:00:00 16,0 8,0 29 16 N - 10 -
04.04.2020 14:00:00 15,8 8,6 35 19 NNE 1011,8 10 -
04.04.2020 13:00:00 16,0 8,0 35 19 NNE - 10 -
04.04.2020 12:00:00 15,0 8,0 34 18 N - 10 -
04.04.2020 11:00:00 14,7 10,0 26 14 NNO 1011,7 10 0,0
04.04.2020 10:00:00 - - - - - - - -
04.04.2020 09:00:00 12,0 10,0 34 18 NO - 10 -
04.04.2020 08:00:00 11,5 9,4 29 16 NO 1011,2 10 -
04.04.2020 07:00:00 12,0 8,0 28 15 NNO - 10 -
04.04.2020 06:00:00 12,0 7,0 22 12 NNO - 10 -
04.04.2020 05:00:00 11,2 7,4 22 12 NNO 1011,1 10 0,0
04.04.2020 04:00:00 11,0 7,0 24 13 NNO - 3,0 -

tt = Temperatura
td = dewpoint
ff = velocità del vento
dd = direzione del vento
ppp = reduced air pressure
vv = visibility
rr = precipitazioni

Stazioni seguenti

WeatherPro
AMSI
MeteoEarth